Starlink 5093

operational
NORAD ID: 56332 Int'l Des: 2023-058 Owner: SPXS Country: US Constellation: starlink
LEOCIRCULARRETROGRADESSO

About Starlink 5093

Description loading...

Live Position

Loading 3D Globe...

Upcoming Passes

Altitude History

Altitude vs Time

uPlot chart will show altitude changes over time

Two-Line Element Set

1 56332U 23058R 25350.94852285 -.00000020 00000-0 30006-5 0 9992
2 56332 97.6044 349.1627 0002257 81.9183 278.2297 15.01259431145715
Epoch: Dec 16, 2025 • Age: 13 hours

Current Status

Altitude 571.3 km
Velocity 7.58 km/s
Sub-Earth Point 56.32°N, 86.79°W
Launch Date Apr 27, 2023
Age 2.6 years
Type internet

Technical Details

Classification Payload
Mass 300.00 kg
Dry Mass 260.00 kg
Total Mass 300.00 kg
Length 0.20 m
Diameter 2.80 m
Span 9.00 m
Shape Box + pan
Manufacturer SPXS
Bus Type Starlink
Phase Status In Orbit
Owner/State SPXS/US

Large Constellations

Loading constellations...